Time,TemperatureF,DewpointF,PressureIn,WindDirection,WindDirectionDegrees,WindSpeedMPH,WindSpeedGustMPH,Humidity,HourlyPrecipIn,Conditions,Clouds,dailyrainin,SolarRadiationWatts/m^2,SoftwareType,DateUTC
2013-01-07 00:00:00,27.5,25.7,30.35,NNW,331,0.0,0.0,93,0.00,,,0.01,0,Wunderground v.1.15,2013-01-07 06:00:00,
2013-01-07 00:10:00,27.2,25.4,30.35,NNW,331,0.0,0.0,93,0.00,,,0.00,0,Wunderground v.1.15,2013-01-07 06:10:00,
2013-01-07 00:15:00,27.0,25.0,30.36,NNW,331,0.0,0.0,92,0.00,,,0.00,0,Wunderground v.1.15,2013-01-07 06:15:00,
2013-01-07 00:25:00,26.7,24.9,30.35,NNW,331,0.0,0.0,93,0.00,,,0.00,0,Wunderground v.1.15,2013-01-07 06:25:00,
2013-01-07 00:30:00,26.7,24.9,30.36,NNW,331,0.0,0.0,93,0.00,,,0.00,0,Wunderground v.1.15,2013-01-07 06:30:00,
2013-01-07 00:40:00,26.6,24.8,30.35,NNW,331,0.0,0.0,93,0.00,,,0.00,0,Wunderground v.1.15,2013-01-07 06:40:00,
2013-01-07 00:45:00,26.6,24.8,30.35,NNW,331,0.0,0.0,93,0.00,,,0.00,0,Wunderground v.1.15,2013-01-07 06:45:00,
2013-01-07 00:50:00,26.5,24.8,30.36,NNW,331,0.0,0.0,93,0.00,,,0.00,0,Wunderground v.1.15,2013-01-07 06:50:00,
2013-01-07 00:55:00,26.4,24.7,30.35,NNW,331,0.0,0.0,93,0.00,,,0.00,0,Wunderground v.1.15,2013-01-07 06:55:00,
2013-01-07 01:00:00,26.3,24.6,30.35,NNW,331,0.0,0.0,93,0.00,,,0.00,0,Wunderground v.1.15,2013-01-07 07:00:00,
2013-01-07 01:05:00,26.1,24.4,30.35,NNW,331,0.0,0.0,93,0.00,,,0.00,0,Wunderground v.1.15,2013-01-07 07:05:00,
2013-01-07 01:10:00,25.9,24.2,30.35,NNW,331,0.0,0.0,93,0.00,,,0.00,0,Wunderground v.1.15,2013-01-07 07:10:00,
2013-01-07 01:15:00,25.9,24.2,30.34,NNW,331,0.0,0.0,93,0.00,,,0.00,0,Wunderground v.1.15,2013-01-07 07:15:00,
2013-01-07 01:20:00,25.8,24.1,30.34,NNW,331,0.0,0.0,93,0.00,,,0.00,0,Wunderground v.1.15,2013-01-07 07:20:00,
2013-01-07 01:25:00,25.8,24.1,30.34,NNW,331,0.0,0.0,93,0.00,,,0.00,0,Wunderground v.1.15,2013-01-07 07:25:00,
2013-01-07 01:30:00,25.8,24.1,30.34,NNW,331,0.0,0.0,93,0.00,,,0.00,0,Wunderground v.1.15,2013-01-07 07:30:00,
2013-01-07 01:35:00,25.7,24.0,30.34,NNW,331,0.0,0.0,93,0.00,,,0.00,0,Wunderground v.1.15,2013-01-07 07:35:00,
2013-01-07 01:40:00,25.7,24.0,30.34,NNW,331,0.0,0.0,93,0.00,,,0.00,0,Wunderground v.1.15,2013-01-07 07:40:00,
2013-01-07 01:45:00,25.7,24.0,30.34,NNW,331,0.0,0.0,93,0.00,,,0.00,0,Wunderground v.1.15,2013-01-07 07:45:00,
2013-01-07 01:50:00,25.6,23.9,30.34,NNW,331,0.0,0.0,93,0.00,,,0.00,0,Wunderground v.1.15,2013-01-07 07:50:00,
2013-01-07 01:55:00,25.4,23.7,30.34,NNW,331,0.0,0.0,93,0.00,,,0.00,0,Wunderground v.1.15,2013-01-07 07:55:00,
2013-01-07 02:00:00,25.4,23.7,30.34,NNW,331,0.0,0.0,93,0.00,,,0.00,0,Wunderground v.1.15,2013-01-07 08:00:00,
2013-01-07 02:05:00,25.4,23.7,30.34,NNW,331,0.0,0.0,93,0.00,,,0.00,0,Wunderground v.1.15,2013-01-07 08:05:00,
2013-01-07 02:15:00,25.2,23.5,30.34,NNW,331,0.0,0.0,93,0.00,,,0.00,0,Wunderground v.1.15,2013-01-07 08:15:00,
2013-01-07 02:20:00,25.1,23.4,30.34,NNW,331,0.0,0.0,93,0.00,,,0.00,0,Wunderground v.1.15,2013-01-07 08:20:00,
2013-01-07 02:25:00,25.0,23.3,30.34,NNW,331,0.0,0.0,93,0.00,,,0.00,0,Wunderground v.1.15,2013-01-07 08:25:00,
2013-01-07 02:30:00,24.9,23.2,30.34,NNW,331,0.0,0.0,93,0.00,,,0.00,0,Wunderground v.1.15,2013-01-07 08:30:00,
2013-01-07 02:35:00,24.8,23.1,30.34,NNW,331,0.0,0.0,93,0.00,,,0.00,0,Wunderground v.1.15,2013-01-07 08:35:00,
2013-01-07 02:40:00,24.7,23.0,30.34,NNW,331,0.0,0.0,93,0.00,,,0.00,0,Wunderground v.1.15,2013-01-07 08:40:00,
2013-01-07 02:45:00,24.7,23.0,30.34,NNW,331,0.0,0.0,93,0.00,,,0.00,0,Wunderground v.1.15,2013-01-07 08:45:00,
2013-01-07 02:55:00,24.4,22.7,30.34,NNW,331,0.0,0.0,93,0.00,,,0.00,0,Wunderground v.1.15,2013-01-07 08:55:00,
2013-01-07 02:59:00,24.3,22.6,30.34,NNW,331,0.0,0.0,93,0.00,,,0.00,0,Wunderground v.1.15,2013-01-07 08:59:00,
2013-01-07 03:05:00,24.2,22.5,30.34,NNW,331,0.0,0.0,93,0.00,,,0.00,0,Wunderground v.1.15,2013-01-07 09:05:00,
2013-01-07 03:10:00,24.2,22.5,30.34,NNW,331,0.0,0.0,93,0.00,,,0.00,0,Wunderground v.1.15,2013-01-07 09:10:00,
2013-01-07 03:15:00,24.3,22.8,30.34,NNW,331,0.0,0.0,94,0.00,,,0.00,0,Wunderground v.1.15,2013-01-07 09:15:00,
2013-01-07 03:25:00,24.4,22.9,30.34,NNW,331,0.0,0.0,94,0.00,,,0.00,0,Wunderground v.1.15,2013-01-07 09:25:00,
2013-01-07 03:30:00,24.5,23.0,30.34,NNW,331,0.0,0.0,94,0.00,,,0.00,0,Wunderground v.1.15,2013-01-07 09:30:00,
2013-01-07 03:35:00,24.4,22.7,30.35,NNW,331,0.0,0.0,93,0.00,,,0.00,0,Wunderground v.1.15,2013-01-07 09:35:00,
2013-01-07 03:40:00,24.3,22.6,30.35,NNW,331,0.0,0.0,93,0.00,,,0.00,0,Wunderground v.1.15,2013-01-07 09:40:00,
2013-01-07 03:45:00,24.2,22.5,30.35,NNW,331,0.0,0.0,93,0.00,,,0.00,0,Wunderground v.1.15,2013-01-07 09:45:00,
2013-01-07 03:50:00,24.2,22.5,30.34,NNW,331,0.0,0.0,93,0.00,,,0.00,0,Wunderground v.1.15,2013-01-07 09:50:00,
2013-01-07 03:55:00,24.0,22.3,30.34,NNW,331,0.0,0.0,93,0.00,,,0.00,0,Wunderground v.1.15,2013-01-07 09:55:00,
2013-01-07 04:00:00,23.9,22.2,30.33,NNW,331,0.0,1.0,93,0.00,,,0.00,0,Wunderground v.1.15,2013-01-07 10:00:00,
2013-01-07 04:05:00,23.6,21.9,30.33,NNW,331,0.0,1.0,93,0.00,,,0.00,0,Wunderground v.1.15,2013-01-07 10:05:00,
2013-01-07 04:10:00,23.6,21.9,30.33,NNW,331,0.0,0.0,93,0.00,,,0.00,0,Wunderground v.1.15,2013-01-07 10:10:00,
2013-01-07 04:15:00,23.5,21.8,30.33,NNW,331,0.0,0.0,93,0.00,,,0.00,0,Wunderground v.1.15,2013-01-07 10:15:00,
2013-01-07 04:20:00,23.6,21.9,30.32,NNW,331,0.0,0.0,93,0.00,,,0.00,0,Wunderground v.1.15,2013-01-07 10:20:00,
2013-01-07 04:25:00,23.5,21.8,30.32,NNW,331,0.0,0.0,93,0.00,,,0.00,0,Wunderground v.1.15,2013-01-07 10:25:00,
2013-01-07 04:30:00,23.4,21.7,30.32,NNW,331,0.0,0.0,93,0.00,,,0.00,0,Wunderground v.1.15,2013-01-07 10:30:00,
2013-01-07 04:35:00,23.5,21.8,30.32,NNW,331,0.0,0.0,93,0.00,,,0.00,0,Wunderground v.1.15,2013-01-07 10:35:00,
2013-01-07 04:40:00,23.5,21.8,30.32,NNW,331,0.0,0.0,93,0.00,,,0.00,0,Wunderground v.1.15,2013-01-07 10:40:00,
2013-01-07 04:45:00,23.4,21.7,30.32,NNW,331,0.0,0.0,93,0.00,,,0.00,0,Wunderground v.1.15,2013-01-07 10:45:00,
2013-01-07 04:50:00,23.4,21.7,30.32,NNW,331,0.0,0.0,93,0.00,,,0.00,0,Wunderground v.1.15,2013-01-07 10:50:00,
2013-01-07 05:00:00,23.5,22.0,30.32,NNW,331,0.0,0.0,94,0.00,,,0.00,0,Wunderground v.1.15,2013-01-07 11:00:00,
2013-01-07 05:05:00,23.7,22.2,30.32,NNW,331,0.0,0.0,94,0.00,,,0.00,0,Wunderground v.1.15,2013-01-07 11:05:00,
2013-01-07 05:10:00,23.8,22.3,30.32,NNW,331,0.0,0.0,94,0.00,,,0.00,0,Wunderground v.1.15,2013-01-07 11:10:00,
2013-01-07 05:15:00,24.0,22.5,30.33,NNW,331,0.0,0.0,94,0.00,,,0.00,0,Wunderground v.1.15,2013-01-07 11:15:00,
2013-01-07 05:20:00,24.1,22.6,30.32,NNW,331,0.0,0.0,94,0.00,,,0.00,0,Wunderground v.1.15,2013-01-07 11:20:00,
2013-01-07 05:25:00,24.1,22.6,30.32,NNW,331,0.0,0.0,94,0.00,,,0.00,0,Wunderground v.1.15,2013-01-07 11:25:00,
2013-01-07 05:30:00,24.3,22.8,30.31,NNW,331,0.0,0.0,94,0.00,,,0.00,0,Wunderground v.1.15,2013-01-07 11:30:00,
2013-01-07 05:35:00,24.5,23.0,30.32,WNW,291,0.0,1.0,94,0.00,,,0.00,0,Wunderground v.1.15,2013-01-07 11:35:00,
2013-01-07 05:40:00,24.7,23.2,30.32,WNW,291,0.0,0.0,94,0.00,,,0.00,0,Wunderground v.1.15,2013-01-07 11:40:00,
2013-01-07 05:45:00,24.8,23.3,30.32,WNW,291,0.0,0.0,94,0.00,,,0.00,0,Wunderground v.1.15,2013-01-07 11:45:00,
2013-01-07 05:50:00,24.8,23.3,30.32,WNW,291,0.0,0.0,94,0.00,,,0.00,0,Wunderground v.1.15,2013-01-07 11:50:00,
2013-01-07 05:55:00,24.8,23.3,30.32,WNW,291,0.0,0.0,94,0.00,,,0.00,0,Wunderground v.1.15,2013-01-07 11:55:00,
2013-01-07 06:00:00,24.7,23.2,30.32,WNW,291,0.0,0.0,94,0.00,,,0.00,0,Wunderground v.1.15,2013-01-07 12:00:00,
2013-01-07 06:10:00,24.5,23.0,30.32,WNW,291,0.0,0.0,94,0.00,,,0.00,0,Wunderground v.1.15,2013-01-07 12:10:00,
2013-01-07 06:20:00,24.3,22.6,30.31,WNW,291,0.0,0.0,93,0.00,,,0.00,0,Wunderground v.1.15,2013-01-07 12:20:00,
2013-01-07 06:25:00,24.3,22.6,30.31,WNW,291,0.0,0.0,93,0.00,,,0.00,0,Wunderground v.1.15,2013-01-07 12:25:00,
2013-01-07 06:35:00,24.1,22.4,30.31,WNW,291,0.0,0.0,93,0.00,,,0.00,0,Wunderground v.1.15,2013-01-07 12:35:00,
2013-01-07 06:40:00,24.1,22.4,30.32,WNW,291,0.0,0.0,93,0.00,,,0.00,0,Wunderground v.1.15,2013-01-07 12:40:00,
2013-01-07 06:45:00,23.9,22.2,30.31,WNW,291,0.0,0.0,93,0.00,,,0.00,0,Wunderground v.1.15,2013-01-07 12:45:00,
2013-01-07 06:50:00,23.7,22.0,30.31,WNW,291,0.0,0.0,93,0.00,,,0.00,0,Wunderground v.1.15,2013-01-07 12:50:00,
2013-01-07 06:55:00,23.6,21.9,30.31,WNW,291,0.0,0.0,93,0.00,,,0.00,0,Wunderground v.1.15,2013-01-07 12:55:00,
2013-01-07 07:00:00,23.7,22.2,30.31,WNW,291,0.0,0.0,94,0.00,,,0.00,0,Wunderground v.1.15,2013-01-07 13:00:00,
2013-01-07 07:05:00,23.7,22.2,30.31,WNW,291,0.0,0.0,94,0.00,,,0.00,0,Wunderground v.1.15,2013-01-07 13:05:00,
2013-01-07 07:15:00,23.5,21.8,30.31,WNW,291,0.0,0.0,93,0.00,,,0.00,0,Wunderground v.1.15,2013-01-07 13:15:00,
2013-01-07 07:20:00,23.4,21.7,30.31,WNW,291,0.0,0.0,93,0.00,,,0.00,0,Wunderground v.1.15,2013-01-07 13:20:00,
2013-01-07 07:25:00,23.4,21.9,30.31,WNW,291,0.0,0.0,94,0.00,,,0.00,0,Wunderground v.1.15,2013-01-07 13:25:00,
2013-01-07 07:30:00,23.4,21.9,30.32,WNW,291,0.0,0.0,94,0.00,,,0.00,0,Wunderground v.1.15,2013-01-07 13:30:00,
2013-01-07 07:35:00,23.5,22.0,30.32,WNW,291,0.0,0.0,94,0.00,,,0.00,5,Wunderground v.1.15,2013-01-07 13:35:00,
2013-01-07 07:40:00,23.5,22.0,30.32,WNW,291,0.0,0.0,94,0.00,,,0.00,11,Wunderground v.1.15,2013-01-07 13:40:00,
2013-01-07 07:45:00,23.5,22.0,30.32,WNW,291,0.0,0.0,94,0.00,,,0.00,21,Wunderground v.1.15,2013-01-07 13:45:00,
2013-01-07 07:50:00,23.7,22.2,30.32,WNW,291,0.0,0.0,94,0.00,,,0.00,32,Wunderground v.1.15,2013-01-07 13:50:00,
2013-01-07 07:55:00,23.8,22.3,30.32,WNW,291,0.0,0.0,94,0.00,,,0.00,42,Wunderground v.1.15,2013-01-07 13:55:00,
2013-01-07 08:00:00,24.1,22.9,30.32,WNW,291,0.0,0.0,95,0.00,,,0.00,51,Wunderground v.1.15,2013-01-07 14:00:00,
2013-01-07 08:05:00,24.5,23.3,30.32,WNW,291,0.0,0.0,95,0.00,,,0.00,53,Wunderground v.1.15,2013-01-07 14:05:00,
2013-01-07 08:15:00,25.5,24.3,30.32,WNW,291,0.0,0.0,95,0.00,,,0.00,65,Wunderground v.1.15,2013-01-07 14:15:00,
2013-01-07 08:20:00,25.9,24.9,30.32,WNW,291,0.0,0.0,96,0.00,,,0.00,54,Wunderground v.1.15,2013-01-07 14:20:00,
2013-01-07 08:30:00,26.6,25.4,30.32,WNW,291,0.0,0.0,95,0.00,,,0.00,83,Wunderground v.1.15,2013-01-07 14:30:00,
2013-01-07 08:35:00,27.0,25.8,30.33,WNW,291,0.0,0.0,95,0.00,,,0.00,93,Wunderground v.1.15,2013-01-07 14:35:00,
2013-01-07 08:45:00,27.9,26.7,30.33,WNW,291,0.0,0.0,95,0.00,,,0.00,206,Wunderground v.1.15,2013-01-07 14:45:00,
2013-01-07 08:50:00,28.5,27.5,30.33,WNW,291,0.0,0.0,96,0.00,,,0.00,172,Wunderground v.1.15,2013-01-07 14:50:00,
2013-01-07 08:55:00,29.4,28.4,30.33,WNW,291,0.0,0.0,96,0.00,,,0.00,116,Wunderground v.1.15,2013-01-07 14:55:00,
2013-01-07 09:00:00,29.9,28.9,30.33,WNW,291,0.0,0.0,96,0.00,,,0.00,109,Wunderground v.1.15,2013-01-07 15:00:00,
2013-01-07 09:05:00,30.3,29.3,30.33,WNW,291,0.0,0.0,96,0.00,,,0.00,107,Wunderground v.1.15,2013-01-07 15:05:00,
2013-01-07 09:10:00,30.6,29.3,30.33,WNW,291,0.0,0.0,95,0.00,,,0.00,113,Wunderground v.1.15,2013-01-07 15:10:00,
2013-01-07 09:20:00,31.4,30.1,30.34,WNW,291,0.0,0.0,95,0.00,,,0.00,174,Wunderground v.1.15,2013-01-07 15:20:00,
2013-01-07 09:29:00,32.9,31.9,30.34,WNW,291,0.0,0.0,96,0.00,,,0.00,359,Wunderground v.1.15,2013-01-07 15:29:00,
2013-01-07 09:35:00,34.2,33.4,30.34,WNW,291,0.0,0.0,97,0.00,,,0.00,288,Wunderground v.1.15,2013-01-07 15:35:00,
2013-01-07 09:40:00,35.3,34.5,30.33,WNW,291,0.0,0.0,97,0.00,,,0.00,313,Wunderground v.1.15,2013-01-07 15:40:00,
2013-01-07 09:45:00,36.6,35.8,30.34,WNW,291,0.0,0.0,97,0.00,,,0.00,341,Wunderground v.1.15,2013-01-07 15:45:00,
2013-01-07 09:54:00,38.5,36.1,30.34,WNW,297,0.0,0.0,91,0.00,,,0.00,334,Wunderground v.1.15,2013-01-07 15:54:00,
2013-01-07 10:00:00,39.6,36.3,30.34,WNW,297,0.0,0.0,88,0.00,,,0.00,301,Wunderground v.1.15,2013-01-07 16:00:00,
2013-01-07 10:09:00,41.6,38.3,30.34,WNW,297,0.0,0.0,88,0.00,,,0.00,332,Wunderground v.1.15,2013-01-07 16:09:00,
2013-01-07 10:14:00,42.6,38.1,30.34,West,275,0.0,0.0,84,0.00,,,0.00,288,Wunderground v.1.15,2013-01-07 16:14:00,
2013-01-07 10:20:00,43.3,37.9,30.33,West,269,0.0,0.0,81,0.00,,,0.00,265,Wunderground v.1.15,2013-01-07 16:20:00,
2013-01-07 10:25:00,43.9,38.1,30.33,West,269,0.0,0.0,80,0.00,,,0.00,237,Wunderground v.1.15,2013-01-07 16:25:00,
2013-01-07 10:30:00,44.5,38.1,30.33,SSW,209,0.0,0.0,78,0.00,,,0.00,260,Wunderground v.1.15,2013-01-07 16:30:00,
2013-01-07 10:35:00,45.2,38.4,30.33,SE,133,0.0,3.0,77,0.00,,,0.00,308,Wunderground v.1.15,2013-01-07 16:35:00,
2013-01-07 10:40:00,46.0,38.2,30.33,ESE,105,0.0,2.0,74,0.00,,,0.00,306,Wunderground v.1.15,2013-01-07 16:40:00,
2013-01-07 10:45:00,46.5,38.3,30.33,SE,134,1.0,2.0,73,0.00,,,0.00,279,Wunderground v.1.15,2013-01-07 16:45:00,
2013-01-07 10:50:00,46.8,38.2,30.32,East,84,1.0,1.0,72,0.00,,,0.00,294,Wunderground v.1.15,2013-01-07 16:50:00,
2013-01-07 10:55:00,47.2,38.6,30.32,SE,128,1.0,1.0,72,0.00,,,0.00,380,Wunderground v.1.15,2013-01-07 16:55:00,
2013-01-07 11:00:00,47.9,38.6,30.32,ESE,119,1.0,3.0,70,0.00,,,0.00,388,Wunderground v.1.15,2013-01-07 17:00:00,
2013-01-07 11:05:00,48.4,38.7,30.33,SE,125,1.0,3.0,69,0.00,,,0.00,461,Wunderground v.1.15,2013-01-07 17:05:00,
2013-01-07 11:10:00,49.1,39.4,30.32,North,360,1.0,1.0,69,0.00,,,0.00,445,Wunderground v.1.15,2013-01-07 17:10:00,
2013-01-07 11:15:00,49.4,38.5,30.31,East,80,1.0,3.0,66,0.00,,,0.00,496,Wunderground v.1.15,2013-01-07 17:15:00,
2013-01-07 11:25:00,50.1,38.8,30.31,East,92,1.0,1.0,65,0.00,,,0.00,399,Wunderground v.1.15,2013-01-07 17:25:00,
2013-01-07 11:30:00,49.9,38.6,30.30,East,81,1.0,2.0,65,0.00,,,0.00,339,Wunderground v.1.15,2013-01-07 17:30:00,
2013-01-07 11:35:00,50.0,38.7,30.30,ENE,63,1.0,2.0,65,0.00,,,0.00,355,Wunderground v.1.15,2013-01-07 17:35:00,
2013-01-07 11:40:00,50.1,38.8,30.30,ENE,63,1.0,1.0,65,0.00,,,0.00,443,Wunderground v.1.15,2013-01-07 17:40:00,
2013-01-07 11:45:00,50.3,38.6,30.29,NE,55,1.0,3.0,64,0.00,,,0.00,499,Wunderground v.1.15,2013-01-07 17:45:00,
2013-01-07 11:50:00,50.6,39.7,30.28,ENE,77,1.0,1.0,66,0.00,,,0.00,392,Wunderground v.1.15,2013-01-07 17:50:00,
2013-01-07 12:00:00,50.7,39.0,30.28,North,5,2.0,2.0,64,0.00,,,0.00,411,Wunderground v.1.15,2013-01-07 18:00:00,
2013-01-07 12:10:00,51.1,38.9,30.27,NNE,23,1.0,1.0,63,0.00,,,0.00,390,Wunderground v.1.15,2013-01-07 18:10:00,
2013-01-07 12:15:00,51.5,38.5,30.27,NE,49,1.0,2.0,61,0.00,,,0.00,459,Wunderground v.1.15,2013-01-07 18:15:00,
2013-01-07 12:20:00,51.8,37.9,30.26,ENE,57,1.0,1.0,59,0.00,,,0.00,482,Wunderground v.1.15,2013-01-07 18:20:00,
2013-01-07 12:30:00,52.4,37.6,30.26,North,5,1.0,1.0,57,0.00,,,0.00,508,Wunderground v.1.15,2013-01-07 18:30:00,
2013-01-07 12:35:00,52.5,37.7,30.26,ENE,71,1.0,1.0,57,0.00,,,0.00,515,Wunderground v.1.15,2013-01-07 18:35:00,
2013-01-07 12:45:00,53.0,36.8,30.24,ENE,76,1.0,1.0,54,0.00,,,0.00,410,Wunderground v.1.15,2013-01-07 18:45:00,
2013-01-07 12:50:00,53.2,37.9,30.23,ENE,60,1.0,1.0,56,0.00,,,0.00,541,Wunderground v.1.15,2013-01-07 18:50:00,
2013-01-07 12:55:00,53.7,37.0,30.23,East,86,1.0,6.0,53,0.00,,,0.00,497,Wunderground v.1.15,2013-01-07 18:55:00,
2013-01-07 13:05:00,53.1,36.4,30.22,NNE,29,2.0,2.0,53,0.00,,,0.00,292,Wunderground v.1.15,2013-01-07 19:05:00,
2013-01-07 13:10:00,52.9,37.2,30.22,NE,49,2.0,3.0,55,0.00,,,0.00,420,Wunderground v.1.15,2013-01-07 19:10:00,
2013-01-07 13:15:00,52.9,36.2,30.22,NE,47,1.0,3.0,53,0.00,,,0.00,519,Wunderground v.1.15,2013-01-07 19:15:00,
2013-01-07 13:20:00,53.2,36.5,30.21,ENE,61,1.0,1.0,53,0.00,,,0.00,489,Wunderground v.1.15,2013-01-07 19:20:00,
2013-01-07 13:25:00,53.5,35.8,30.20,NE,49,1.0,1.0,51,0.00,,,0.00,332,Wunderground v.1.15,2013-01-07 19:25:00,
2013-01-07 13:35:00,52.6,35.0,30.20,NNE,20,1.0,1.0,51,0.00,,,0.00,387,Wunderground v.1.15,2013-01-07 19:35:00,
2013-01-07 13:45:00,52.4,35.3,30.19,North,5,1.0,1.0,52,0.00,,,0.00,369,Wunderground v.1.15,2013-01-07 19:45:00,
2013-01-07 13:50:00,52.7,36.0,30.19,NE,54,1.0,1.0,53,0.00,,,0.00,410,Wunderground v.1.15,2013-01-07 19:50:00,
2013-01-07 13:55:00,53.2,36.5,30.18,NNE,14,1.0,1.0,53,0.00,,,0.00,464,Wunderground v.1.15,2013-01-07 19:55:00,
2013-01-07 14:00:00,53.4,35.7,30.18,NE,38,2.0,2.0,51,0.00,,,0.00,541,Wunderground v.1.15,2013-01-07 20:00:00,
2013-01-07 14:05:00,53.9,35.2,30.18,NE,49,2.0,4.0,49,0.00,,,0.00,376,Wunderground v.1.15,2013-01-07 20:05:00,
2013-01-07 14:15:00,53.5,36.3,30.18,NE,35,2.0,2.0,52,0.00,,,0.00,272,Wunderground v.1.15,2013-01-07 20:15:00,
2013-01-07 14:24:00,53.1,37.3,30.17,NNE,26,1.0,2.0,55,0.00,,,0.00,304,Wunderground v.1.15,2013-01-07 20:24:00,
2013-01-07 14:29:00,53.2,37.0,30.16,NE,44,1.0,1.0,54,0.00,,,0.00,264,Wunderground v.1.15,2013-01-07 20:29:00,
2013-01-07 14:35:00,53.3,36.6,30.17,NE,43,1.0,1.0,53,0.00,,,0.00,367,Wunderground v.1.15,2013-01-07 20:35:00,
2013-01-07 14:40:00,53.9,36.7,30.16,NE,38,1.0,1.0,52,0.00,,,0.00,703,Wunderground v.1.15,2013-01-07 20:40:00,
2013-01-07 14:45:00,54.3,36.0,30.16,NE,38,2.0,2.0,50,0.00,,,0.00,343,Wunderground v.1.15,2013-01-07 20:45:00,
2013-01-07 14:55:00,53.8,37.1,30.16,ENE,74,2.0,2.0,53,0.00,,,0.00,352,Wunderground v.1.15,2013-01-07 20:55:00,
2013-01-07 15:00:00,54.4,37.1,30.17,NNE,26,1.0,1.0,52,0.00,,,0.00,452,Wunderground v.1.15,2013-01-07 21:00:00,
2013-01-07 15:10:00,55.1,37.8,30.15,ESE,102,1.0,2.0,52,0.00,,,0.00,248,Wunderground v.1.15,2013-01-07 21:10:00,
2013-01-07 15:15:00,54.7,36.4,30.15,ENE,74,1.0,7.0,50,0.00,,,0.00,185,Wunderground v.1.15,2013-01-07 21:15:00,
2013-01-07 15:20:00,54.1,36.4,30.15,ENE,78,2.0,2.0,51,0.00,,,0.00,246,Wunderground v.1.15,2013-01-07 21:20:00,
2013-01-07 15:25:00,54.0,36.3,30.15,NE,55,1.0,2.0,51,0.00,,,0.00,204,Wunderground v.1.15,2013-01-07 21:25:00,
2013-01-07 15:30:00,53.8,36.6,30.15,NE,54,2.0,2.0,52,0.00,,,0.00,311,Wunderground v.1.15,2013-01-07 21:30:00,
2013-01-07 15:35:00,53.7,36.0,30.17,ENE,76,2.0,2.0,51,0.00,,,0.00,199,Wunderground v.1.15,2013-01-07 21:35:00,
2013-01-07 15:45:00,53.5,36.3,30.17,ENE,72,1.0,1.0,52,0.00,,,0.00,160,Wunderground v.1.15,2013-01-07 21:45:00,
2013-01-07 15:50:00,53.4,36.2,30.18,ENE,62,1.0,2.0,52,0.00,,,0.00,125,Wunderground v.1.15,2013-01-07 21:50:00,
2013-01-07 15:55:00,53.3,36.6,30.18,ENE,57,1.0,2.0,53,0.00,,,0.00,105,Wunderground v.1.15,2013-01-07 21:55:00,
2013-01-07 16:00:00,53.2,36.5,30.17,ENE,67,0.0,0.0,53,0.00,,,0.00,93,Wunderground v.1.15,2013-01-07 22:00:00,
2013-01-07 16:05:00,53.1,36.9,30.17,ENE,69,0.0,1.0,54,0.00,,,0.00,104,Wunderground v.1.15,2013-01-07 22:05:00,
2013-01-07 16:15:00,53.1,36.9,30.16,North,9,0.0,1.0,54,0.00,,,0.00,151,Wunderground v.1.15,2013-01-07 22:15:00,
2013-01-07 16:20:00,53.1,36.9,30.17,ENE,67,0.0,0.0,54,0.00,,,0.00,105,Wunderground v.1.15,2013-01-07 22:20:00,
2013-01-07 16:25:00,53.0,36.8,30.17,NNE,30,0.0,1.0,54,0.00,,,0.00,93,Wunderground v.1.15,2013-01-07 22:25:00,
2013-01-07 16:30:00,52.9,37.2,30.17,ENE,76,0.0,0.0,55,0.00,,,0.00,86,Wunderground v.1.15,2013-01-07 22:30:00,
2013-01-07 16:35:00,52.8,37.1,30.17,East,85,0.0,0.0,55,0.00,,,0.00,81,Wunderground v.1.15,2013-01-07 22:35:00,
2013-01-07 16:40:00,52.7,37.0,30.17,NE,41,0.0,0.0,55,0.00,,,0.00,76,Wunderground v.1.15,2013-01-07 22:40:00,
2013-01-07 16:50:00,52.5,37.7,30.16,NE,53,0.0,0.0,57,0.00,,,0.00,62,Wunderground v.1.15,2013-01-07 22:50:00,
2013-01-07 16:55:00,52.3,37.1,30.16,ENE,57,0.0,0.0,56,0.00,,,0.00,56,Wunderground v.1.15,2013-01-07 22:55:00,
2013-01-07 17:00:00,52.1,37.3,30.16,NE,46,0.0,1.0,57,0.00,,,0.00,49,Wunderground v.1.15,2013-01-07 23:00:00,
2013-01-07 17:05:00,52.0,37.2,30.16,ENE,69,1.0,1.0,57,0.00,,,0.00,39,Wunderground v.1.15,2013-01-07 23:05:00,
2013-01-07 17:10:00,51.8,37.0,30.16,ENE,70,0.0,2.0,57,0.00,,,0.00,30,Wunderground v.1.15,2013-01-07 23:10:00,
2013-01-07 17:20:00,51.7,36.9,30.16,ENE,71,0.0,1.0,57,0.00,,,0.00,11,Wunderground v.1.15,2013-01-07 23:20:00,
2013-01-07 17:25:00,51.7,37.4,30.16,ENE,58,0.0,1.0,58,0.00,,,0.00,7,Wunderground v.1.15,2013-01-07 23:25:00,
2013-01-07 17:30:00,51.6,36.9,30.16,ENE,73,0.0,0.0,57,0.00,,,0.00,9,Wunderground v.1.15,2013-01-07 23:30:00,
2013-01-07 17:35:00,51.5,37.2,30.16,ENE,71,0.0,0.0,58,0.00,,,0.00,5,Wunderground v.1.15,2013-01-07 23:35:00,
2013-01-07 17:40:00,51.3,37.9,30.16,ENE,71,0.0,0.0,60,0.00,,,0.00,0,Wunderground v.1.15,2013-01-07 23:40:00,
2013-01-07 17:45:00,51.2,36.9,30.17,ENE,71,0.0,0.0,58,0.00,,,0.00,0,Wunderground v.1.15,2013-01-07 23:45:00,
2013-01-07 17:55:00,51.1,37.7,30.17,East,88,0.0,0.0,60,0.00,,,0.00,0,Wunderground v.1.15,2013-01-07 23:55:00,
2013-01-07 18:00:00,50.9,37.5,30.16,East,79,0.0,0.0,60,0.00,,,0.00,0,Wunderground v.1.15,2013-01-08 00:00:00,
2013-01-07 18:10:00,50.7,36.9,30.15,ENE,66,0.0,0.0,59,0.00,,,0.00,0,Wunderground v.1.15,2013-01-08 00:10:00,
2013-01-07 18:15:00,50.6,37.2,30.16,ENE,58,0.0,0.0,60,0.00,,,0.00,0,Wunderground v.1.15,2013-01-08 00:15:00,
2013-01-07 18:25:00,50.2,37.3,30.15,ENE,78,0.0,0.0,61,0.00,,,0.00,0,Wunderground v.1.15,2013-01-08 00:25:00,
2013-01-07 18:30:00,49.9,37.0,30.14,ENE,63,0.0,0.0,61,0.00,,,0.00,0,Wunderground v.1.15,2013-01-08 00:30:00,
2013-01-07 18:35:00,49.8,37.3,30.13,ENE,57,0.0,0.0,62,0.00,,,0.00,0,Wunderground v.1.15,2013-01-08 00:35:00,
2013-01-07 18:40:00,49.7,37.2,30.14,NNE,24,0.0,0.0,62,0.00,,,0.00,0,Wunderground v.1.15,2013-01-08 00:40:00,
2013-01-07 18:45:00,49.7,37.2,30.14,ENE,63,0.0,0.0,62,0.00,,,0.00,0,Wunderground v.1.15,2013-01-08 00:45:00,
2013-01-07 18:50:00,49.7,37.2,30.14,NE,54,0.0,0.0,62,0.00,,,0.00,0,Wunderground v.1.15,2013-01-08 00:50:00,
2013-01-07 18:59:00,49.6,37.5,30.13,NNE,26,1.0,1.0,63,0.00,,,0.00,0,Wunderground v.1.15,2013-01-08 00:59:00,
2013-01-07 19:05:00,49.5,37.4,30.13,ENE,60,0.0,1.0,63,0.00,,,0.00,0,Wunderground v.1.15,2013-01-08 01:05:00,
2013-01-07 19:10:00,49.3,37.6,30.12,ENE,58,0.0,0.0,64,0.00,,,0.00,0,Wunderground v.1.15,2013-01-08 01:10:00,
2013-01-07 19:14:00,49.1,37.4,30.13,NE,54,0.0,0.0,64,0.00,,,0.00,0,Wunderground v.1.15,2013-01-08 01:14:00,
2013-01-07 19:20:00,48.8,37.6,30.13,NE,49,0.0,0.0,65,0.00,,,0.00,0,Wunderground v.1.15,2013-01-08 01:20:00,
2013-01-07 19:25:00,48.7,37.5,30.14,NE,44,0.0,2.0,65,0.00,,,0.00,0,Wunderground v.1.15,2013-01-08 01:25:00,
2013-01-07 19:30:00,48.5,37.7,30.14,NE,42,0.0,0.0,66,0.00,,,0.00,0,Wunderground v.1.15,2013-01-08 01:30:00,
2013-01-07 19:39:00,48.3,37.8,30.14,NE,42,0.0,0.0,67,0.00,,,0.00,0,Wunderground v.1.15,2013-01-08 01:39:00,
2013-01-07 19:45:00,48.1,37.7,30.15,NE,42,0.0,0.0,67,0.00,,,0.00,0,Wunderground v.1.15,2013-01-08 01:45:00,
2013-01-07 19:54:00,47.7,38.0,30.16,NE,42,0.0,1.0,69,0.00,,,0.00,0,Wunderground v.1.15,2013-01-08 01:54:00,
2013-01-07 20:00:00,47.7,38.8,30.16,NE,42,0.0,0.0,71,0.00,,,0.00,0,Wunderground v.1.15,2013-01-08 02:00:00,
2013-01-07 20:05:00,47.4,38.8,30.15,NE,42,0.0,0.0,72,0.00,,,0.00,0,Wunderground v.1.15,2013-01-08 02:05:00,
2013-01-07 20:10:00,47.2,38.3,30.16,NE,42,0.0,0.0,71,0.00,,,0.00,0,Wunderground v.1.15,2013-01-08 02:10:00,
2013-01-07 20:15:00,47.1,38.5,30.15,NE,42,0.0,0.0,72,0.00,,,0.00,0,Wunderground v.1.15,2013-01-08 02:15:00,
2013-01-07 20:20:00,47.0,38.4,30.16,NE,42,0.0,0.0,72,0.00,,,0.00,0,Wunderground v.1.15,2013-01-08 02:20:00,
2013-01-07 20:25:00,47.0,38.8,30.15,NE,42,0.0,0.0,73,0.00,,,0.00,0,Wunderground v.1.15,2013-01-08 02:25:00,
2013-01-07 20:35:00,47.0,39.1,30.15,NE,42,0.0,0.0,74,0.00,,,0.00,0,Wunderground v.1.15,2013-01-08 02:35:00,
2013-01-07 20:40:00,46.9,39.4,30.15,NE,42,0.0,0.0,75,0.00,,,0.00,0,Wunderground v.1.15,2013-01-08 02:40:00,
2013-01-07 20:45:00,46.9,39.7,30.15,NE,42,0.0,0.0,76,0.00,,,0.00,0,Wunderground v.1.15,2013-01-08 02:45:00,
2013-01-07 20:50:00,46.8,39.3,30.15,NE,42,0.0,0.0,75,0.00,,,0.00,0,Wunderground v.1.15,2013-01-08 02:50:00,
2013-01-07 20:55:00,46.7,39.5,30.15,NE,42,0.0,0.0,76,0.00,,,0.00,0,Wunderground v.1.15,2013-01-08 02:55:00,
2013-01-07 21:05:00,46.6,39.8,30.15,NE,42,0.0,0.0,77,0.00,,,0.00,0,Wunderground v.1.15,2013-01-08 03:05:00,
2013-01-07 21:10:00,46.5,39.3,30.15,NE,42,0.0,0.0,76,0.00,,,0.00,0,Wunderground v.1.15,2013-01-08 03:10:00,
2013-01-07 21:15:00,46.5,39.3,30.15,NE,42,0.0,0.0,76,0.00,,,0.00,0,Wunderground v.1.15,2013-01-08 03:15:00,
2013-01-07 21:20:00,46.7,39.9,30.15,NE,42,0.0,0.0,77,0.00,,,0.00,0,Wunderground v.1.15,2013-01-08 03:20:00,
2013-01-07 21:25:00,46.7,39.9,30.15,NE,42,0.0,0.0,77,0.00,,,0.00,0,Wunderground v.1.15,2013-01-08 03:25:00,
2013-01-07 21:30:00,46.7,40.2,30.14,NE,42,0.0,0.0,78,0.00,,,0.00,0,Wunderground v.1.15,2013-01-08 03:30:00,
2013-01-07 21:35:00,46.8,39.6,30.14,NE,42,0.0,0.0,76,0.00,,,0.00,0,Wunderground v.1.15,2013-01-08 03:35:00,
2013-01-07 21:45:00,47.0,40.2,30.14,NE,42,0.0,0.0,77,0.00,,,0.00,0,Wunderground v.1.15,2013-01-08 03:45:00,
2013-01-07 21:50:00,47.0,40.5,30.14,NE,42,0.0,0.0,78,0.00,,,0.00,0,Wunderground v.1.15,2013-01-08 03:50:00,
2013-01-07 21:55:00,47.0,40.5,30.13,NE,42,0.0,0.0,78,0.00,,,0.00,0,Wunderground v.1.15,2013-01-08 03:55:00,
2013-01-07 22:00:00,47.1,40.3,30.13,NE,42,0.0,0.0,77,0.00,,,0.00,0,Wunderground v.1.15,2013-01-08 04:00:00,
2013-01-07 22:05:00,47.2,40.0,30.13,NE,42,0.0,0.0,76,0.00,,,0.00,0,Wunderground v.1.15,2013-01-08 04:05:00,
2013-01-07 22:10:00,47.4,40.2,30.12,NE,42,0.0,0.0,76,0.00,,,0.00,0,Wunderground v.1.15,2013-01-08 04:10:00,
2013-01-07 22:15:00,47.6,40.1,30.12,NE,42,0.0,0.0,75,0.00,,,0.00,0,Wunderground v.1.15,2013-01-08 04:15:00,
2013-01-07 22:20:00,47.9,40.0,30.12,NE,36,0.0,0.0,74,0.00,,,0.00,0,Wunderground v.1.15,2013-01-08 04:20:00,
2013-01-07 22:25:00,48.1,39.9,30.12,ENE,68,0.0,0.0,73,0.00,,,0.00,0,Wunderground v.1.15,2013-01-08 04:25:00,
2013-01-07 22:35:00,48.3,40.0,30.12,ENE,60,0.0,0.0,73,0.00,,,0.00,0,Wunderground v.1.15,2013-01-08 04:35:00,
2013-01-07 22:45:00,48.5,40.2,30.12,ENE,58,0.0,1.0,73,0.00,,,0.00,0,Wunderground v.1.15,2013-01-08 04:45:00,
2013-01-07 22:50:00,48.6,40.3,30.11,NE,36,0.0,0.0,73,0.00,,,0.00,0,Wunderground v.1.15,2013-01-08 04:50:00,
2013-01-07 22:55:00,48.6,40.3,30.11,NNE,26,0.0,0.0,73,0.00,,,0.00,0,Wunderground v.1.15,2013-01-08 04:55:00,
2013-01-07 23:04:00,48.7,40.4,30.10,NNE,20,0.0,0.0,73,0.00,,,0.00,0,Wunderground v.1.15,2013-01-08 05:04:00,
2013-01-07 23:09:00,48.6,40.3,30.10,NNE,14,0.0,0.0,73,0.00,,,0.00,0,Wunderground v.1.15,2013-01-08 05:09:00,
2013-01-07 23:15:00,48.7,40.4,30.10,NNE,16,0.0,0.0,73,0.00,,,0.00,0,Wunderground v.1.15,2013-01-08 05:15:00,
2013-01-07 23:20:00,48.7,40.4,30.10,NNE,15,0.0,0.0,73,0.00,,,0.00,0,Wunderground v.1.15,2013-01-08 05:20:00,
2013-01-07 23:25:00,48.7,40.4,30.10,NE,48,0.0,0.0,73,0.00,,,0.00,0,Wunderground v.1.15,2013-01-08 05:25:00,
2013-01-07 23:30:00,48.7,40.4,30.09,ENE,62,0.0,0.0,73,0.00,,,0.00,0,Wunderground v.1.15,2013-01-08 05:30:00,
2013-01-07 23:35:00,48.7,40.4,30.09,NE,46,0.0,0.0,73,0.00,,,0.00,0,Wunderground v.1.15,2013-01-08 05:35:00,
2013-01-07 23:45:00,48.8,40.9,30.09,NE,34,0.0,0.0,74,0.00,,,0.00,0,Wunderground v.1.15,2013-01-08 05:45:00,
2013-01-07 23:50:00,48.7,40.8,30.09,NNE,32,0.0,0.0,74,0.00,,,0.00,0,Wunderground v.1.15,2013-01-08 05:50:00,
2013-01-07 23:55:00,48.8,40.9,30.09,NE,34,0.0,0.0,74,0.00,,,0.00,0,Wunderground v.1.15,2013-01-08 05:55:00,